Location: ???
(35.5616°N, 139.7977°E)
Time: 18:56:00
(UTC+00:00)

COSMO-SKYMED 1 - Pass Details

Date: 17 November 2025
Orbit: 579 x 581 km, 97.9° (Epoch: 08 December)

Event Time Altitude Azimuth Distance (km) Brightness Sun altitude
Rises 20:03:25 0° 161° (SSE) 2,786 6.4 -15.5°
Reaches altitude 10° 20:05:34 10° 159° (SSE) 1,891 5.5 -15.0°
Maximum altitude 20:09:38 71° 76° (ENE) 618 2.7 -14.2°
Drops below altitude 10° 20:13:44 10° 353° (N) 1,903 4.9 -13.4°
Sets 20:15:54 0° 351° (N) 2,806 5.7 -13.0°
